Tracking 19562 objects as of 21-Mar-2019
HD Live streaming from Space Station
objects crossing your sky now

SBS 6

Track SBS 6 now!
SBS 6 is classified as:


NORAD ID: 20872
Int'l Code: 1990-091A
Perigee: 36,135.9 km
Apogee: 36,177.7 km
Inclination: 8.8 °
Period: 1,454.7 minutes
Semi major axis: 42527 km
RCS: 24.6021 m2 (large)
Launch date: October 12, 1990
Source: United States (US)
Launch site: FRENCH GUIANA (FRGUI)
aabbcc
Your satellite tracking list
Your tracking list is empty




NASA's NSSDC Master Catalog

Two Line Element Set (TLE):
1 20872U 90091A   19079.48420458 +.00000037 +00000-0 +00000-0 0  9999
2 20872 008.7628 045.7142 0004906 015.4798 169.3052 00.98990488019908
Source of the keplerian elements: AFSPC